This demonstration page uses our WeatherBlox Daily Observations layout. Learn more.

Left ArrowRight Arrow

39.92423, -83.80882

Hourly Observations for June 1, 2021

Temp ( °F °C ) Dew Point ( °F °C ) Humidity (%) Winds ( mph kmh ) Pressure ( in mb ) Visibility ( mi km ) Precip ( " mm )
12:56 am 00:56 Clear 54 12.2 52 11.1 93 93 N N/A 30.23 1024 10 16 N/A
1:56 am 01:56 Clear 53 11.7 53 11.7 100 100 N N/A 30.23 1024 10 16 N/A
2:56 am 02:56 Clear 53 11.7 53 11.7 100 100 N N/A 30.22 1024 10 16 N/A
3:56 am 03:56 Clear 52 11.1 52 11.1 100 100 ESE 3 6 30.22 1023 10 16 N/A
4:56 am 04:56 Clear 52 11.1 52 11.1 100 100 ESE 3 6 30.23 1024 10 16 N/A
5:56 am 05:56 Clear 52 11 N/A N/A N N/A 30.23 1024 10 16 N/A
6:56 am 06:56 Sunny 54 12 N/A N/A N N/A 30.24 1024 10 16 N/A
7:56 am 07:56 Sunny 57 13.9 57 13.9 100 100 N N/A 30.25 1024 10 16 N/A
8:56 am 08:56 Sunny 63 17.2 56 13.3 78 78 S 3 6 30.25 1025 10 16 N/A
9:56 am 09:56 Sunny 68 20 56 13.3 65 65 S 5 7 30.25 1024 10 16 N/A
10:56 am 10:56 Sunny 70 21.1 53 11.7 55 55 SSW 5 7 30.24 1024 10 16 N/A
11:56 am 11:56 Mostly Sunny 71 21.7 51 10.6 49 49 VRB 3 6 30.24 1024 10 16 N/A
12:56 pm 12:56 Sunny 73 22.8 52 11.1 48 48 SSE 9 15 30.24 1024 10 16 N/A
1:56 pm 13:56 Sunny 73 22.8 51 10.6 46 46 SW 8 13 30.22 1023 10 16 N/A
2:56 pm 14:56 Sunny 74 23.3 52 11.1 46 46 N N/A 30.20 1023 10 16 N/A
3:56 pm 15:56 Sunny 76 24.4 50 10 40 40 SW 7 11 30.18 1022 10 16 N/A
4:56 pm 16:56 Partly Cloudy 76 24.4 51 10.6 42 42 SW 9 15 30.18 1022 10 16 N/A
5:56 pm 17:56 Partly Cloudy 75 23.9 51 10.6 43 43 SSW 9 15 30.17 1022 10 16 N/A
6:56 pm 18:56 Sunny 73 22.8 53 11.7 50 50 SW 7 11 30.16 1021 10 16 N/A
7:56 pm 19:56 Sunny 71 21.7 55 12.8 57 57 SW 6 9 30.16 1021 10 16 N/A
8:56 pm 20:56 Sunny 69 20.6 56 13.3 63 63 S 3 6 30.16 1021 10 16 N/A
9:56 pm 21:56 Mostly Cloudy 67 19.4 57 13.9 71 71 SSW 3 6 30.16 1021 10 16 N/A
10:56 pm 22:56 Cloudy 66 18.9 57 13.9 73 73 N N/A 30.16 1021 10 16 N/A
11:56 pm 23:56 Cloudy 64 17.8 59 15 84 84 N N/A 30.15 1021 10 16 N/A

Powered by AerisWeather